CW1662 Weather Reports


Display with metric or nautical units.
time (UTC)temp
F
wind
direction
speed
MPH
gust
MPH
rain 1hr
in
rain 24hr
in
rain mn
in
humidity
%
barometer
mb
20260503175840 61 260 7.0 13.0 0.00 0.00 0.00 39 1013.9
20260503175344 61 311 7.0 17.0 0.00 0.00 0.00 35 1013.8
20260503174828 60 346 9.0 17.0 0.00 0.00 0.00 38 1013.9
20260503174333 60 297 11.0 18.0 0.00 0.00 0.00 36 1014.0
20260503173841 60 294 12.0 18.0 0.00 0.00 0.00 35 1014.1
20260503173346 60 292 7.0 14.0 0.00 0.00 0.00 43 1014.2
20260503172830 60 275 9.0 13.0 0.00 0.00 0.00 39 1014.2
20260503172333 59 288 7.0 16.0 0.00 0.00 0.00 37 1014.2
20260503171858 60 294 10.0 16.0 0.00 0.00 0.00 43 1014.3
20260503171341 59 271 10.0 14.0 0.00 0.00 0.00 42 1014.3
20260503170826 59 269 5.0 17.0 0.00 0.00 0.00 37 1014.4
20260503170332 59 315 11.0 17.0 0.00 0.00 0.00 41 1014.5
20260503150848 54 287 7.0 17.0 0.00 0.00 0.00 48 1015.7
20260503150331 54 299 12.0 15.0 0.00 0.00 0.00 49 1015.7
20260503131328 49 336 8.0 15.0 0.00 0.00 0.00 57 1016.1
20260503130853 49 287 5.0 15.0 0.00 0.00 0.00 61 1016.0
20260503130337 49 311 9.0 14.0 0.00 0.00 0.00 61 1016.0
20260503110339 40 297 0.0 0.0 0.00 0.00 0.00 78 1015.1
20260503090327 39 297 2.0 2.0 0.00 0.01 0.00 75 1014.0
20260503081333 40 297 1.0 2.0 0.00 0.01 0.00 72 1013.8
20260503080838 41 297 1.0 3.0 0.00 0.01 0.00 72 1013.7
20260503080326 41 297 1.0 3.0 0.00 0.01 0.00 71 1013.7
20260503072840 42 307 4.0 7.0 0.00 0.01 0.00 71 1013.3
20260503072327 43 321 3.0 6.0 0.00 0.01 0.00 70 1013.3
20260503071835 43 307 4.0 7.0 0.00 0.01 0.00 70 1013.3
20260503071339 43 299 3.0 7.0 0.00 0.01 0.00 70 1013.2
20260503070904 43 306 4.0 7.0 0.00 0.01 0.00 70 1013.2
20260503070328 43 313 4.0 6.0 0.00 0.01 0.00 70 1013.1
20260503060326 45 315 5.0 7.0 0.00 0.01 0.00 72 1013.0
20260503054823 45 298 3.0 5.0 0.00 0.01 0.00 72 1012.9
20260503054331 45 294 3.0 6.0 0.00 0.01 0.00 73 1013.0
20260503053835 45 313 3.0 6.0 0.00 0.01 0.00 72 1012.9
20260503053340 45 306 3.0 7.0 0.00 0.01 0.00 72 1013.0
20260503052824 45 286 3.0 7.0 0.00 0.01 0.00 72 1013.0
20260503052330 45 306 4.0 9.0 0.00 0.01 0.00 73 1013.0
20260503051837 44 319 5.0 9.0 0.00 0.01 0.00 73 1013.0
20260503051325 44 319 3.0 6.0 0.00 0.01 0.00 73 1013.1
20260503050850 44 311 4.0 5.0 0.00 0.01 0.00 73 1013.2
20260503050332 44 298 3.0 6.0 0.00 0.01 0.00 73 1013.1
20260503045838 45 278 3.0 6.0 0.00 0.01 0.00 72 1013.2
20260503045328 44 269 3.0 4.0 0.00 0.01 0.00 72 1013.2
20260503044836 45 269 2.0 6.0 0.00 0.01 0.00 72 1013.3
20260503044400 45 273 4.0 6.0 0.00 0.01 0.00 72 1013.4
20260503043823 45 275 3.0 5.0 0.00 0.01 0.00 72 1013.3
20260503043329 44 283 3.0 6.0 0.00 0.01 0.00 73 1013.2
20260503042837 44 308 4.0 6.0 0.00 0.01 0.00 74 1013.2
20260503042341 44 323 4.0 6.0 0.00 0.01 0.00 74 1013.2
20260503041825 44 310 4.0 6.0 0.00 0.01 0.00 74 1013.2
20260503041330 43 295 4.0 5.0 0.00 0.01 0.00 73 1013.3
20260503040834 44 311 3.0 5.0 0.00 0.01 0.00 72 1013.2
20260503040339 44 309 3.0 5.0 0.00 0.01 0.00 71 1013.2
20260503035827 44 309 3.0 5.0 0.00 0.01 0.00 70 1013.2
20260503035330 45 315 4.0 9.0 0.00 0.01 0.01 69 1013.3
20260503034834 45 310 6.0 10.0 0.00 0.01 0.01 69 1013.4
20260503034402 45 306 5.0 10.0 0.00 0.01 0.01 70 1013.4
20260503033826 45 297 5.0 7.0 0.00 0.01 0.01 70 1013.5
20260503033330 45 317 5.0 8.0 0.00 0.01 0.01 70 1013.5
20260503032835 45 316 5.0 8.0 0.00 0.01 0.01 70 1013.5
20260503032337 45 315 4.0 6.0 0.00 0.01 0.01 70 1013.6
20260503031824 45 306 4.0 6.0 0.00 0.01 0.01 70 1013.5
20260503031332 46 310 3.0 6.0 0.00 0.01 0.01 69 1013.5
20260503030836 46 309 3.0 6.0 0.00 0.01 0.01 69 1013.4
20260503030401 47 306 4.0 6.0 0.00 0.01 0.01 69 1013.4
20260503025843 47 299 2.0 4.0 0.00 0.01 0.01 69 1013.3
20260503025332 47 299 2.0 6.0 0.00 0.02 0.01 69 1013.5
20260503024840 47 298 3.0 6.0 0.00 0.02 0.01 69 1013.6
20260503024404 47 313 1.0 4.0 0.00 0.02 0.01 69 1013.5
20260503023828 47 312 2.0 4.0 0.00 0.02 0.01 69 1013.6
20260503023332 47 332 2.0 4.0 0.00 0.02 0.01 68 1013.6
20260503022837 47 332 2.0 5.0 0.00 0.02 0.01 68 1013.7
20260503022340 47 332 3.0 6.0 0.00 0.02 0.01 68 1013.8
20260503021825 47 332 4.0 7.0 0.00 0.02 0.01 68 1013.8
20260503021333 47 328 3.0 10.0 0.00 0.02 0.01 69 1013.8
20260503020857 48 327 5.0 10.0 0.00 0.02 0.01 67 1013.7
20260503020341 48 325 5.0 10.0 0.00 0.02 0.01 67 1013.6
20260503015905 49 340 5.0 10.0 0.00 0.02 0.01 66 1013.6
20260503015326 49 341 4.0 13.0 0.00 0.02 0.01 64 1013.5
20260503014838 49 343 6.0 13.0 0.00 0.02 0.01 64 1013.6
20260503014343 49 315 6.0 13.0 0.00 0.02 0.01 64 1013.6
20260503013828 50 340 6.0 11.0 0.00 0.02 0.01 64 1013.6
20260503013332 49 333 7.0 11.0 0.00 0.02 0.01 64 1013.4
20260503012837 49 319 8.0 11.0 0.00 0.02 0.01 63 1013.4
20260503012400 50 338 5.0 8.0 0.00 0.02 0.01 63 1013.3
20260503011824 50 337 6.0 9.0 0.00 0.02 0.01 62 1013.2
20260503011328 50 335 6.0 9.0 0.00 0.02 0.01 62 1013.1
20260503010833 50 342 4.0 10.0 0.00 0.02 0.01 62 1013.1
20260503010337 50 338 6.0 10.0 0.00 0.02 0.01 61 1012.8
20260503005842 50 345 5.0 11.0 0.00 0.02 0.01 61 1012.8
20260503005330 51 355 5.0 11.0 0.00 0.02 0.01 61 1012.6
20260503004834 51 340 5.0 11.0 0.00 0.02 0.01 61 1012.6
20260503004341 51 360 7.0 11.0 0.00 0.02 0.01 60 1012.6
20260503003827 51 344 7.0 11.0 0.00 0.02 0.01 60 1012.6
20260503003335 52 323 7.0 10.0 0.00 0.02 0.01 60 1012.4
20260503002840 52 343 6.0 11.0 0.00 0.02 0.01 60 1012.2
20260503002322 52 348 4.0 6.0 0.00 0.02 0.01 62 1012.1
20260503001830 52 341 4.0 7.0 0.00 0.02 0.01 62 1012.2
20260503001334 52 338 4.0 7.0 0.00 0.02 0.01 61 1012.1
20260503000839 52 319 4.0 11.0 0.00 0.02 0.01 60 1012.1
20260503000327 53 331 5.0 11.0 0.00 0.02 0.01 59 1012.0
20260502235852 53 343 7.0 10.0 0.00 0.02 0.01 58 1011.9
20260502235334 53 60 6.0 10.0 0.00 0.02 0.01 58 1011.9
20260502234859 53 347 5.0 10.0 0.00 0.02 0.01 58 1011.8
20260502234342 53 314 6.0 14.0 0.00 0.02 0.01 57 1011.8
20260502233827 54 5 7.0 15.0 0.00 0.02 0.01 55 1011.6
20260502233352 54 329 9.0 15.0 0.00 0.02 0.01 55 1011.6
20260502232835 54 328 5.0 11.0 0.00 0.02 0.01 57 1011.6
20260502232339 54 330 5.0 12.0 0.00 0.02 0.01 55 1011.5
20260502231844 54 333 7.0 12.0 0.00 0.02 0.01 53 1011.5
20260502231327 54 319 7.0 12.0 0.00 0.02 0.01 55 1011.5
20260502230835 54 311 6.0 12.0 0.00 0.02 0.01 53 1011.4
20260502230339 54 305 6.0 11.0 0.00 0.02 0.01 52 1011.4
20260502225828 54 305 5.0 12.0 0.00 0.02 0.01 54 1011.5
20260502225331 55 319 9.0 13.0 0.00 0.02 0.01 51 1011.5
20260502224838 55 313 8.0 16.0 0.00 0.02 0.01 54 1011.5
20260502224345 55 324 9.0 16.0 0.00 0.02 0.01 51 1011.5
20260502223829 55 317 9.0 13.0 0.00 0.02 0.01 51 1011.3
20260502223333 56 321 7.0 11.0 0.00 0.02 0.01 51 1011.4
20260502222857 56 292 5.0 13.0 0.00 0.02 0.01 50 1011.3
20260502222343 57 335 10.0 13.0 0.00 0.02 0.01 50 1011.3
20260502221827 56 323 7.0 12.0 0.00 0.02 0.01 52 1011.2
20260502221332 56 320 6.0 11.0 0.00 0.02 0.01 53 1011.2
20260502220837 56 350 7.0 10.0 0.00 0.02 0.01 49 1011.3
20260502220401 56 355 5.0 10.0 0.00 0.02 0.01 52 1011.2
20260502215845 56 296 5.0 11.0 0.00 0.02 0.01 51 1011.3
20260502215332 56 360 7.0 11.0 0.00 0.02 0.01 50 1011.4
20260502214835 56 334 4.0 12.0 0.00 0.02 0.01 53 1011.4
20260502214322 56 308 4.0 12.0 0.00 0.02 0.01 47 1011.4
20260502213830 56 323 5.0 12.0 0.00 0.02 0.01 51 1011.5
20260502213334 57 317 6.0 10.0 0.00 0.02 0.01 51 1011.4
20260502212838 57 294 6.0 10.0 0.00 0.02 0.01 48 1011.3
20260502212340 57 342 4.0 11.0 0.00 0.02 0.01 50 1011.4
20260502211828 56 279 5.0 14.0 0.00 0.02 0.01 48 1011.2
20260502211332 57 280 7.0 14.0 0.00 0.02 0.01 47 1011.2
20260502210837 57 293 7.0 11.0 0.00 0.02 0.01 50 1011.1
20260502210326 57 275 6.0 9.0 0.00 0.02 0.01 50 1011.1
20260502205831 57 319 3.0 7.0 0.00 0.02 0.01 50 1011.0
20260502205354 56 322 3.0 9.0 0.00 0.02 0.01 50 1011.0
20260502204838 56 288 5.0 10.0 0.00 0.02 0.01 50 1011.0
20260502204342 56 319 6.0 12.0 0.00 0.02 0.01 51 1011.0
20260502203827 57 331 9.0 12.0 0.00 0.02 0.01 50 1011.0
20260502203333 57 330 7.0 11.0 0.00 0.02 0.01 52 1011.1
20260502202841 57 304 7.0 12.0 0.00 0.02 0.01 51 1011.1
20260502202324 57 298 6.0 14.0 0.00 0.02 0.01 52 1011.1
20260502201829 56 331 9.0 14.0 0.00 0.02 0.01 53 1011.1
20260502201334 56 9 6.0 14.0 0.00 0.02 0.01 52 1011.0
20260502200821 57 298 10.0 14.0 0.00 0.02 0.01 51 1011.2
20260502200328 57 285 4.0 12.0 0.00 0.02 0.01 51 1011.2
20260502195833 57 316 9.0 12.0 0.00 0.02 0.01 48 1011.1
20260502195336 58 294 3.0 11.0 0.00 0.02 0.01 46 1011.2
20260502194822 58 303 3.0 10.0 0.00 0.02 0.01 46 1011.3
20260502194329 58 242 5.0 10.0 0.00 0.02 0.01 48 1011.4
20260502193836 58 277 5.0 7.0 0.00 0.02 0.01 49 1011.5
20260502193343 57 274 4.0 7.0 0.00 0.02 0.01 50 1011.6
20260502192827 57 323 2.0 7.0 0.00 0.02 0.01 48 1011.7
20260502192330 57 343 1.0 7.0 0.00 0.02 0.01 48 1011.7
20260502191858 57 245 3.0 5.0 0.00 0.02 0.01 50 1011.7
20260502191325 57 286 3.0 6.0 0.00 0.02 0.01 51 1011.8
20260502190830 56 297 1.0 6.0 0.00 0.02 0.01 48 1011.9
20260502190334 56 338 1.0 6.0 0.00 0.02 0.01 48 1012.1
20260502185839 56 9 3.0 6.0 0.00 0.02 0.01 52 1012.2
20260502185321 56 303 3.0 7.0 0.00 0.02 0.01 52 1012.4
20260502184829 56 283 4.0 7.0 0.00 0.02 0.01 49 1012.4
20260502184334 56 338 1.0 7.0 0.00 0.02 0.01 49 1012.4
20260502183838 57 319 4.0 9.0 0.00 0.02 0.01 50 1012.5
20260502183343 57 343 6.0 9.0 0.00 0.02 0.01 53 1012.4
20260502182827 56 298 3.0 7.0 0.00 0.02 0.01 51 1012.5
20260502182330 56 267 2.0 7.0 0.00 0.02 0.01 51 1012.5
20260502181854 56 296 3.0 6.0 0.00 0.02 0.01 51 1012.6
20260502181321 56 300 2.0 5.0 0.00 0.02 0.01 51 1012.5
20260502180829 56 288 4.0 5.0 0.00 0.02 0.01 51 1012.7
20260502180333 56 294 3.0 5.0 0.00 0.02 0.01 52 1012.6